If you wish to contribute or participate in the discussions about articles you are invited to join SKYbrary as a registered user

 Actions

Lyon-Bron Airport

From SKYbrary Wiki

LFLY
Airport
ICAO: LFLY – IATA: LYN
Summary
Name Lyon-Bron Airport
Region Europe
Territory France FR.gif
Location , Rhone-Alpes
Serving Lyon
Elevation 200.863 m
659 ft
659 ft200.863 m
Type medium airport
Coordinates 45° 43' 37.82" N, 4° 56' 39.39" E
Runways
Designator Length Width Surface ROPS
16/34 1820 m5,971.129 ft
45 m147.638 ft
ASP yes/yes


METAR
Observation LFLY 151800Z AUTO 02003KT CAVOK 28/12 Q1020 NOSIG
Station Lyon / Bron
Date/Time 15 September 2019 18:00:00
Wind direction 20°
Wind speed 03 kts
Lowest cloud amount clouds and visibility OK
Temperature 28°C
Dew point 12°C
Humidity 37%
QNH 1020 hPa
Weather condition n/a